www.pogodaiklimat.ru

Погода и климат >> Архив погоды >> Россия >> Якутия >> Якутск


АРХИВ ПОГОДЫ в Якутске

Время (UTC), дата Ветер
(напр.,м/с)
 
Видим.   Явления Облачность Т
(С)
Тd
(С)
f
(%)
Тe
(С)
Тes
(С)
Комфортность P
(гПа)
Po
(гПа)
Тmin
(С)
Tmax
(С)
R
(мм)
R24
(мм)
S
(см)
00 14.02 З 1 50 км {снег} 10/0
[Cs]
-34.8 -37.2 79 -39 -39 опасность
обморожения
1011.2 996.7 -35.5 0.0 26
03 14.02 Ю 1 20 км слабый снег 10/3 600 м
[Sc Ac trans Ci fib]
-25.8 -28.3 79 -29 -29 по сезону 1010.5 996.5
06 14.02 Ю 1 20 км слабый снег 10/3 600 м
[Sc Ac trans Ci fib]
-23.5 -26.6 76 -27 -27 по сезону 1010.9 997.1
09 14.02 З 1 20 км слабый снег 10/0
[Ac trans Ci fib]
-23.9 -26.4 80 -27 -27 по сезону 1011.9 998.0
12 14.02 З 1 20 км {снег} 10/0
[Ac trans Ci fib]
-27.5 -29.6 82 -31 -31 опасность
обморожения
1012.6 998.6 -22.6 0.0
15 14.02 штиль 0 20 км слабый снег 10/0
[Ac trans Ci fib]
-30.5 -32.8 80 -31 -31 опасность
обморожения
1013.7 999.4
18 14.02 З 1 20 км слабый снег 10/0
[Ac trans Ci fib]
-27.8 -30.2 80 -32 -32 опасность
обморожения
1014.1 1000.0
21 14.02 З 1 20 км {снег} 10/0
[Ac trans Ci fib]
-29.0 -31.5 79 -33 -33 опасность
обморожения
1014.3 1000.2
00 15.02 З 1 50 км {снег} 10/0
[Ac trans Ci fib]
-28.5 -31.0 79 -32 -32 опасность
обморожения
1015.6 1001.4 -30.6 0.0 26
03 15.02 СЗ 2 50 км 10/0
[Ac trans Ci fib]
-23.7 -26.9 75 -30 -29 по сезону 1015.3 1001.4
06 15.02 СЗ 3 50 км 10/0
[Ac trans Ci fib]
-22.8 -26.3 73 -31 -31 опасность
обморожения
1016.5 1002.6
09 15.02 Ю 1 50 км 10/0
[Ac trans Ci fib]
-25.5 -27.8 81 -29 -29 по сезону 1018.2 1004.2
12 15.02 штиль 0 20 км 10/0
[Ac trans Ci fib]
-30.3 -32.5 81 -30 -30 по сезону 1018.8 1004.5 -22.5
15 15.02 ЮЗ 1 20 км 10/0
[Ci fib]
-27.8 -29.9 82 -32 -32 опасность
обморожения
1019.1 1004.9
18 15.02 штиль 0 20 км слабый снег 10/0
[Ci fib]
-30.7 -32.9 81 -31 -31 опасность
обморожения
1019.6 1005.2
21 15.02 З 2 20 км {снег} 10/0
[Ac trans Ci fib]
-30.8 -33.0 81 -38 -38 опасность
обморожения
1019.5 1005.1
00 16.02 ЮЗ 1 50 км {снег} 10/0
[Ac trans Ci fib]
-27.4 -29.7 81 -31 -31 опасность
обморожения
1019.8 1005.6 -30.8 0.0 26
03 16.02 СЗ 2 50 км 10/0
[Ac trans Ci fib]
-22.3 -25.2 77 -29 -27 по сезону 1019.6 1005.7
06 16.02 СЗ 1 50 км 10/0
[Ac trans Ci fib]
-19.6 -22.8 76 -23 -22 по сезону 1019.0 1005.3
09 16.02 З 1 50 км 8/0
[Ci fib]
-22.9 -25.2 81 -26 -26 по сезону 1020.3 1006.4
12 16.02 З 1 50 км 8/0
[Ci fib]
-24.4 -26.6 82 -28 -28 по сезону 1020.9 1006.9 -19.4
15 16.02 Ю 1 50 км 8/0
[Ci fib]
-28.9 -30.9 83 -33 -33 опасность
обморожения
1021.4 1007.1
18 16.02 Ю 1 50 км 8/0
[Ci fib]
-30.9 -33.0 82 -35 -35 опасность
обморожения
1021.4 1007.0
21 16.02 Ю 1 20 км слабый снег 10/0
[Ac trans Ci fib]
-29.8 -32.0 81 -34 -34 опасность
обморожения
1021.1 1006.8
00 17.02 штиль 0 20 км слабый снег 10/0
[Ac trans Ci fib]
-27.8 -30.0 81 -28 -28 по сезону 1021.5 1007.3 -31.4 0.0 26
03 17.02 штиль 0 20 км слабый снег 10/0
[Ac trans Ci fib]
-22.0 -25.0 77 -22 -21 тепло 1021.2 1007.3
06 17.02 ЮВ 1 20 км слабый снег 10/0
[Ac trans Cs]
-22.0 -24.9 77 -25 -25 по сезону 1020.9 1007.0
09 17.02 Ю 1 20 км слабый снег 10/0
[Ac trans Cs]
-24.5 -26.7 82 -28 -28 по сезону 1021.4 1007.4
12 17.02 штиль 0 20 км слабый снег 10/0
[Ac trans Cs]
-29.3 -31.4 82 -29 -29 по сезону 1021.8 1007.5 -21.6 0.4
15 17.02 С 1 20 км слабый снег 10/0
[Ac trans Cs]
-31.2 -33.4 81 -35 -35 опасность
обморожения
1021.9 1007.5
18 17.02 З 1 20 км слабый снег 10/0
[Cs]
-30.5 -32.8 80 -35 -35 опасность
обморожения
1022.0 1007.6
21 17.02 штиль 0 20 км слабый снег 10/0
[Cs]
-33.0 -35.4 79 -33 -33 опасность
обморожения
1022.0 1007.5
00 18.02 З 1 20 км слабый снег 10/0
[Ac trans Ci fib]
-33.8 -36.2 79 -38 -38 опасность
обморожения
1022.3 1007.7 -34.6 0.3 26
03 18.02 ЮВ 1 20 км слабый снег 10/0
[Ac trans Cs]
-29.8 -32.3 79 -34 -33 опасность
обморожения
1021.8 1007.5
06 18.02 ЮВ 1 20 км слабый снег 10/0
[Cs]
-26.8 -29.9 75 -31 -30 опасность
обморожения
1021.5 1007.3
09 18.02 С 1 20 км слабый снег 10/0
[Cs]
-29.1 -31.4 80 -33 -33 опасность
обморожения
1022.1 1007.8
12 18.02 штиль 0 20 км слабый снег 10/0
[Cs]
-31.1 -33.5 79 -31 -31 опасность
обморожения
1022.6 1008.2 -26.6 0.3
15 18.02 штиль 0 20 км слабый снег 10/0
[Cs]
-31.2 -33.5 80 -31 -31 опасность
обморожения
1022.0 1007.6
18 18.02 штиль 0 20 км слабый снег 10/0
[Cs]
-30.9 -33.2 80 -31 -31 опасность
обморожения
1021.6 1007.2
21 18.02 штиль 0 20 км слабый снег 10/0
[Cs]
-30.9 -33.3 79 -31 -31 опасность
обморожения
1021.4 1007.0
00 19.02 штиль 0 20 км слабый снег 10/0
[Ac trans Ci fib]
-30.9 -33.2 80 -31 -31 опасность
обморожения
1021.3 1006.9 -31.7 0.2 26
03 19.02 Ю 2 20 км слабый снег 10/0
[Ac trans Ci fib]
-28.2 -31.4 74 -35 -34 опасность
обморожения
1020.5 1006.3
06 19.02 Ю 2 20 км слабый снег 10/0
[Ac trans Ci fib]
-28.1 -31.4 73 -35 -35 опасность
обморожения
1020.3 1006.0
09 19.02 штиль 0 20 км слабый снег 10/0
[Ac trans Ci fib]
-30.2 -32.5 80 -30 -30 по сезону 1020.5 1006.1
12 19.02 штиль 0 20 км {снег} 10/0
[Ci fib]
-34.1 -36.4 80 -34 -34 опасность
обморожения
1020.3 1005.7 -27.1 0.2
15 19.02 штиль 0 20 км 8/0
[Ci fib]
-35.6 -37.8 80 -36 -36 опасность
обморожения
1019.6 1005.0
18 19.02 штиль 0 20 км 8/0
[Ci fib]
-36.8 -39.3 77 -37 -37 опасность
обморожения
1019.0 1004.2
21 19.02 штиль 0 20 км 8/0
[Ci fib]
-37.7 -40.3 76 -38 -38 опасность
обморожения
1018.6 1003.8
00 20.02 штиль 0 1000 м дымка 6/0
[Ci fib]
-38.3 -41.0 76 -38 -38 опасность
обморожения
1018.5 1003.7 -38.6 26
03 20.02 ЮВ 1 1000 м слабый снег {туман} 10/0
[Ac trans Ci fib]
-33.7 -36.4 76 -38 -37 опасность
обморожения
1018.0 1003.5
06 20.02 ЮЗ 1 20 км слабый снег {туман} 10/0
[Ac trans Ci fib]
-30.8 -33.8 75 -35 -34 опасность
обморожения
1017.7 1003.4
09 20.02 З 1 50 км {снег} 10/0
[Ci fib]
-32.8 -35.3 78 -37 -37 опасность
обморожения
1018.4 1003.9
12 20.02 штиль 0 20 км ледяные иглы {снег} 10/0
[Ac trans Ci fib]
-37.3 -39.8 77 -37 -37 опасность
обморожения
1018.7 1004.0 -29.5 0.2
15 20.02 штиль 0 20 км слабый снег 10/0
[Ac trans Ci fib]
-38.7 -41.4 75 -39 -39 опасность
обморожения
1018.3 1003.4
18 20.02 штиль 0 20 км слабый снег 10/0
[Ac trans Ci fib]
-39.3 -42.0 75 -39 -39 опасность
обморожения
1018.1 1003.2
21 20.02 штиль 0 500 м слабый снег {туман} 10/0
[Ac trans Ci fib]
-39.8 -42.6 74 -40 -40 опасность
обморожения
1018.3 1003.4

 

Местоположение метеостанции Якутск (Якутия, Россия): широта 62.00 долгота 129.60 высота над уровнем моря 101 м.

В архиве по умолчанию представлена погода в Якутске за последнюю неделю. Архивные данные за месяц целиком и за предыдущие месяцы, начиная с января 2011 года, Вы можете получить, выбрав интересующий диапазон дат из раскрывающегося списка и нажав кнопку "Ввод!".

Внимание! Время в таблицах - всемирное. Для получения местного времени необходимо прибавить поправку, которая в Якутске равна 9 ч.

Смотрите также архив погоды в соседних городах и на ближайших метеорологических станциях:

Погода в Покровске (Якутия, Россия) (64 км)
Погода в Намцах (Якутия, Россия) (80 км)
Погода в Бердигестяхе (Якутия, Россия) (138 км)
Погода в Чурапче (Якутия, Россия) (157 км)
Погода в Батамае (Якутия, Россия) (169 км)
Погода в Тегюльте (Якутия, Россия) (172 км)
Погода в Амге (Якутия, Россия) (173 км)
Погода в Верхоянском Перевозе (Якутия, Россия) (191 км)
Погода в Ытык-Кюёле (Якутия, Россия) (207 км)
Погода в Сеген-Кюели (Якутия, Россия) (225 км)

Пояснения к столбцам:

Ветер - указаны скорость ветра в м/с - средняя за 10 мин, порывы в срок и между сроками (в фигурных скобках) и направление, откуда дует ветер: С - северный, СВ - северо-восточный, В - восточный, ЮВ - юго-восточный, Ю - южный, ЮЗ - юго-западный, З - западный, СЗ - северо-западный.
Видимость - горизонтальная дальность видимости в метрах или километрах. При видимости от 1 до 10 км при отсутствии осадков обычно наблюдается дымка, при ухудшении видимости до 1 км и менее - туман. В сухую погоду видимость может ухудшаться дымом, пылью или мглою.
Явления - указаны атмосферные явления, наблюдавшиеся в срок или в последний час перед сроком; фигурными скобками обозначены явления, наблюдавшиеся между сроками (за 1-3 часа до срока); квадратными скобками обозначены град или гололедные отложения с указанием их диаметра в мм.
Облачность - указаны через наклонную черту общая и нижняя облачность в баллах и высота нижней границы облаков в метрах; квадратными скобками обозначены формы облаков: Ci - перистые, Cs - перисто-слоистые, Cc - перисто-кучевые, Ac - высококучевые, As - высокослоистые, Sc - слоисто-кучевые, Ns - слоисто-дождевые, Cu - кучевые, Cb - кучево-дождевые. Подробнее классификацию облаков см. в Атласе облаков (PDF).
T - Температура воздуха - температура, измеренная на высоте 2 м над землей.
Td - Температура точки росы - температура, при понижении до которой содержащийся в воздухе водяной пар достигнет насыщения.
f - Относительная влажность воздуха - влажноcть воздуха, измеренная на высоте 2 м над землей.
Te - Эффективная температура - температура, которую ощущает одетый по сезону человек в тени. Характеристика душности погоды. При расчете учитывается влияние влажности воздуха и скорости ветра на теплоощущения человека.
Tes - Эффективная температура на солнце - температура, которую ощущает человек, с поправкой на солнечный нагрев. Характеристика знойности погоды. Зависит от высоты солнца над горизонтом, облачности и скорости ветра. Ночью, в пасмурную погоду, а также при ветре 12 м/с и более поправка равна нулю.
P - Атмосферное давление - приведенное к уровню моря атмосферное давление.
Po - Атмосферное давление - измеренное на уровне метеостанции атмосферное давление.
Tmin - Минимальная температура - минимум температуры воздуха на высоте 2 м над землей.
Tmax - Максимальная температура - максимум температуры воздуха на высоте 2 м над землей.
R - Количество осадков - Количество выпавших осадков за период времени, мм. При наведении курсора мыши на число - период времени, за который выпало указанное количество осадков.
R24 - Количество осадков - Количество выпавших осадков за 24 часа, мм.
S - Снежный покров - Высота снежного покрова, см. При наведении курсора мыши на число - состояние снежного покрова и степень покрытия местности в баллах.